SCP
0 0 0 0 0 0 0 0 0 0 0 0 0 0 0 0 0 0 0 0 0 0 0 0 0 0 0 0 0 0 0 0 0 0 0 0 0 0 0 0 0 0 0 0 0 0 0 0 0 0 0 -0 -0 -0
0 0 0 0 0 0 0 0 0 0 0 0 0 0 0 0 0 0 0 0 0 0 0 0 0 0 0 0 0 0 0 0 0 0 0 0 0 0 0 0 0 0 0 0 0 0 0 0 0 0 0 -0 -0 0
0 0 0 0 0 0 0 0 0 0 0 0 0 0 0 0 0 0 0 0 0 0 0 0 0 0 0 0 0 0 0 0 0 0 0 0 0 0 0 0 0 0 0 0 0 0 0 0 0 0 0 0 0 0
0 0 0 0 0 0 0 0 0 0 0 0 0 0 0 0 0 0 0 0 0 0 0 0 0 0 0 0 0 0 0 0 0 0 0 0 0 0 0 0 0 0 0 0 0 0 0 0 0 0 0 0 0 0
0 0 0 0 0 0 0 0 0 0 0 0 0 0 0 0 0 0 0 0 0 0 0 0 0 0 0 0 0 0 0 0 0 0 0 0 0 0 0 0 0 0 0 0 0 0 0 0 0 0 0 0 0 0
0 0 0 0 0 0 0 0 0 0 0 0 0 0 0 0 0 0 0 0 0 0 0 0 0 0 0 0 0 0 0 0 0 0 0 0 0 0 0 0 0 0 0 0 0 0 0 0 0 0 0 0 0 0
0 0 0 0 0 0 0 0 0 0 0 0 0 0 0 0 0 0 0 0 0 0 0 0 0 0 0 0 0 0 0 0 0 0 0 0 0 0 0 0 0 0 0 0 0 0 0 0 0 0 0 0 0 0
0 0 0 0 0 0 0 0 0 0 0 0 0 0 0 0 0 0 0 0 0 0 0 0 0 0 0 0 0 0 0 0 0 0 0 0 0 0 0 0 0 0 0 0 0 0 0 0 0 0 0 0 0 0
0 0 0 0 0 0 0 0 0 0 0 0 0 0 0 0 0 0 0 0 0 0 0 0 0 0 0 0 0 0 0 0 0 0 0 0 0 0 0 0 0 0 0 0 0 0 0 0 0 0 0 0 0 0
0 0 0 0 0 0 0 0 0 0 0 0 0 0 0 0 0 0 0 0 0 0 0 0 0 0 0 0 0 0 0 0 0 0 0 0 0 0 0 0 0 0 0 0 0 0 0 0 0 0 0 0 0 0
0 0 0 0 0 0 0 0 0 0 0 0 0 0 0 0 0 0 0 0 0 0 0 0 0 0 0 0 0 0 0 0 0 0 0 0 0 0 0 0 0 0 0 0 0 0 0 0 0 0 0 0 0 0
0 0 0 0 0 0 0 0 0 0 0 0 0 0 0 0 0 0 0 0 0 0 0 0 0 0 0 0 0 0 0 0 0 0 0 0 0 0 0 0 0 0 0 0 0 0 0 0 0 0 0 0 0 0
0 0 0 0 0 0 0 0 0 0 0 0 0 0 0 0 0 0 0 0 0 0 0 0 0 0 0 0 0 0 0 0 0 0 0 0 0 0 0 0 0 0 0 0 0 0 0 0 0 0 -0 -0 -0 -0
0 0 0 0 0 0 0 0 0 0 0 0 0 0 0 0 0 0 0 0 0 0 0 0 0 0 0 0 0 0 0 0 0 0 0 0 0 0 0 0 0 0 0 0 0 0 0 0 -0 -0 -0 -0 -0 -0
0 0 0 0 0 0 0 0 0 0 0 0 0 0 0 0 0 0 0 0 0 0 0 0 0 0 0 0 0 0 0 0 0 0 0 0 0 0 0 0 0 0 0 0 0 0 -0 -0 -0 -0 -0 -0 0 0
0 0 0 0 0 0 0 0 0 0 0 0 0 0 0 0 0 0 0 0 0 0 0 0 0 0 0 0 0 0 0 0 0 0 0 0 0 0 0 0 0 0 0 0 0 -0 -0 -0 0 0 -0 -0 0 0
0 0 0 0 0 0 0 0 0 0 0 0 0 0 0 0 0 0 0 0 0 0 0 0 0 0 0 0 0 0 0 0 0 0 0 0 0 0 0 0 0 0 0 0 -0 -0 -0 0 0 0 -0 0 0 0
0 0 0 0 0 0 0 0 0 0 0 0 0 0 0 0 0 0 0 0 0 0 0 0 0 0 0 0 0 0 0 0 0 0 0 0 0 0 0 0 0 0 0 -0 -0 -0 -0 0 0 -0 -0 -0 0 0
0 0 0 0 0 0 0 0 0 0 0 0 0 0 0 0 0 0 0 0 0 0 0 0 0 0 0 0 0 0 0 0 0 0 0 0 0 0 0 0 0 0 -0 -0 -0 -0 -0 -0 -0 -0 -0 0 0 0
0 -0 0 0 0 0 0 0 0 0 0 0 0 0 0 0 0 0 0 0 0 0 0 0 0 0 0 0 0 0 0 0 0 0 0 0 0 0 0 0 0 -0 -0 -0 -0 0 0 0 0 -0 -0 0 0 0
0 0 0 0 0 0 0 0 0 0 0 0 0 0 0 0 0 0 0 0 0 0 0 0 0 0 0 0 0 0 0 0 0 0 0 0 0 0 0 0 -0 -0 -0 0 0 0 0 0 -0 -0 -0 -0 0 0
0 0 0 0 0 0 0 0 0 0 0 0 0 0 0 0 0 0 0 0 0 0 0 0 0 0 0 0 0 0 0 0 0 0 0 0 0 0 0 0 0 0 0 0 0 0 0 0 0 -0 -0 -0 -0 -0
0 0 0 0 0 0 0 0 0 0 0 0 0 0 0 0 0 0 0 0 0 0 0 0 0 0 0 0 0 0 0 0 0 0 0 0 -0 0 0 0 0 0 0 0 0 0 0 0 -0 -0 -0 -0 -0 -0
-0 0 0 0 0 0 0 0 0 0 0 0 0 0 0 0 0 0 0 0 0 0 0 0 0 0 0 0 0 0 0 0 0 0 0 0 0 0 0 0 0 0 0 0 0 0 0 0 0 0 0 0 0 0
0 -0 0 0 0 0 0 0 0 0 0 0 0 0 0 0 0 0 0 0 0 0 0 0 0 0 0 0 0 0 -0 0 0 0 0 0 0 0 0 0 0 0 0 0 0 0 0 0 0 0 0 0 0 0
-0 0 0 0 0 0 0 0 0 0 0 0 0 0 0 0 0 0 0 0 0 0 0 0 0 0 -0 -0 -0 -0 0 -0 0 0 0 0 0 0 0 0 0 0 0 0 0 0 0 0 0 0 0 0 0 0
0 0 0 0 0 0 0 0 0 0 0 0 0 0 0 0 0 0 0 0 0 -0 -0 0 -0 -0 0 -0 -0 0 0 0 0 0 0 0 0 0 0 0 0 0 0 0 0 0 0 0 0 0 0 0 0 0
0 -0 0 -0 0 0 0 0 0 0 0 0 0 0 0 0 0 0 0 -0 -0 0 -0 0 0 0 -0 0 0 0 0 0 0 0 0 0 -0 -0 -0 -0 -0 -0 0 0 0 0 0 0 0 0 0 0 0 0
0 -0 -0 -0 -0 -0 0 0 0 0 0 0 0 0 0 0 0 0 0 -0 0 0 0 0 0 0 -0 -0 -0 0 0 -0 0 0 0 0 0 -0 -0 -0 0 0 0 0 0 0 0 0 0 0 0 0 0 0
-0 -0 -0 -0 -0 -0 -0 -0 -0 0 0 0 0 0 0 0 0 0 -0 0 -0 -0 -0 -0 -0 -0 0 0 -0 0 -0 0 0 0 0 0 0 0 0 0 0 0 0 0 0 0 0 0 0 0 0 0 0 0
-0 0 0 -0 -0 -0 -0 -0 -0 -0 -0 -0 -0 -0 0 0 0 0 -0 -0 0 0 0 0 0 0 0 0 0 0 0 0 0 0 0 0 0 0 0 0 0 0 0 0 0 0 0 0 0 0 0 0 0 0
0 -0 0 -0 -0 0 0 0 -0 -0 -0 -0 -0 -0 -0 -0 -0 0 0 0 0 0 0 0 0 0 0 0 0 0 0 0 0 0 0 0 0 0 0 0 0 0 0 0 0 0 0 0 0 0 0 0 0 0
-0 -0 -0 -0 0 0 0 0 -0 0 0 0 -0 -0 -0 -0 -0 0 0 0 -0 -0 -0 -0 -0 -0 -0 0 0 0 0 0 0 0 0 0 0 0 0 0 0 0 0 0 0 0 0 0 0 0 0 0 0 0
Wind_Speed_500mb
55 54 52 51 51 49 48 47 48 40 53 53 53 52 52 51 46 48 59 55 52 36 60 47 40 31 20 17 8 9 3 8 5 5 7 7 7 9 2 6 7 5 3 6 1 1 15 10 37 3 16 33 34 32
61 59 56 59 55 54 57 55 58 55 53 53 58 59 55 57 53 48 53 51 47 56 30 26 42 55 71 70 41 25 21 14 20 4 2 4 4 2 7 17 10 13 13 10 15 14 15 47 43 63 45 41 34 34
64 67 66 64 61 62 61 57 59 51 53 55 56 61 62 58 57 53 56 50 44 45 54 63 53 82 84 69 61 36 34 38 30 44 12 8 16 8 14 12 16 14 28 15 5 35 32 44 60 60 61 46 48 50
67 68 67 65 65 64 63 60 58 56 54 57 59 58 57 57 54 54 57 56 52 23 12 37 50 53 37 42 56 76 87 61 48 46 25 9 9 18 9 15 16 17 9 15 29 34 47 57 58 44 40 53 57 67
69 70 70 69 68 67 65 65 60 56 51 52 57 56 54 55 51 51 59 61 57 49 9 14 27 34 39 46 55 56 68 70 48 31 11 10 8 8 6 10 22 28 35 25 31 54 45 47 67 52 55 60 52 50
69 70 68 68 68 64 65 65 65 61 57 51 53 53 48 47 48 49 44 66 66 66 24 11 23 40 50 66 66 62 68 64 38 19 11 21 49 24 12 10 21 42 56 68 48 76 64 74 67 54 44 44 49 66
68 68 66 64 64 64 63 62 63 59 54 51 49 51 52 49 47 59 13 9 32 54 24 7 7 18 38 58 67 65 61 41 41 40 31 46 39 22 9 23 33 56 64 56 57 49 42 43 20 34 47 64 66 79
64 63 64 64 65 64 62 60 60 58 53 50 47 46 49 47 46 58 71 44 23 48 15 5 8 3 17 12 15 40 31 35 27 24 9 10 14 13 13 28 62 47 37 28 27 29 33 47 55 55 55 70 76 88
61 62 60 59 60 59 60 57 55 54 49 48 43 41 42 51 48 55 51 48 69 53 11 9 8 7 16 26 20 12 17 8 15 9 8 15 6 13 14 13 10 15 8 22 33 38 41 40 59 65 69 73 66 88
61 61 61 59 58 59 61 56 52 50 49 45 39 33 18 20 40 33 27 27 28 14 11 5 15 7 14 13 6 5 15 6 7 10 11 8 9 16 13 13 13 15 19 28 39 36 56 64 55 73 77 78 73 81
53 58 59 60 61 59 63 56 51 46 42 49 26 22 18 16 27 18 13 16 14 6 14 13 36 9 25 7 10 17 5 5 6 8 10 2 6 5 9 8 12 15 19 24 31 39 46 55 71 81 92 90 89 87
49 47 47 48 52 58 57 55 53 49 54 33 25 22 24 18 13 9 8 4 6 12 10 9 15 20 12 19 8 8 6 4 10 3 7 6 6 8 0 7 13 19 26 32 37 48 53 58 63 71 79 83 80 79
37 42 47 48 47 54 62 56 50 49 49 51 25 23 16 12 10 12 12 5 2 5 20 17 4 12 10 15 4 4 8 11 7 4 9 9 10 3 12 18 23 29 35 43 49 52 57 62 63 64 73 72 74 77
38 39 37 43 44 45 51 51 48 49 39 20 13 13 11 8 8 9 10 10 10 14 34 26 10 7 9 5 4 5 7 6 1 2 13 1 4 16 20 25 34 40 43 50 54 58 62 64 66 63 62 67 71 73
36 36 34 33 41 42 41 43 49 53 25 16 13 12 11 8 3 10 16 22 16 31 32 12 8 2 2 3 6 1 4 9 12 11 3 4 11 19 25 30 36 43 49 54 56 60 61 58 58 61 60 62 61 61
18 20 28 29 29 32 37 41 46 51 14 17 8 6 9 9 3 9 18 14 33 33 22 11 6 6 8 7 5 14 10 13 8 5 3 14 19 23 27 31 35 41 46 50 51 51 51 50 51 54 56 53 52 51
16 20 18 19 24 29 32 36 29 13 12 10 4 11 10 4 9 16 16 15 30 22 5 6 10 17 3 3 7 9 10 5 8 2 9 15 22 24 26 31 34 38 41 43 44 43 43 41 42 44 48 47 44 43
15 20 23 23 21 29 39 30 22 8 9 9 2 8 12 10 17 19 16 31 18 10 13 8 11 4 10 11 9 4 5 8 10 8 13 14 14 18 24 30 32 34 36 37 36 36 34 35 36 38 39 39 38 42
10 16 21 24 30 13 9 5 8 9 7 8 16 18 16 18 18 19 24 23 15 13 20 9 7 7 7 4 5 8 7 3 5 13 16 6 13 17 19 23 27 29 30 29 28 28 28 25 25 27 30 32 35 38
9 3 5 29 27 10 9 10 9 13 6 10 11 12 13 14 19 20 19 19 18 7 5 2 7 4 6 10 6 2 3 5 8 12 4 5 10 13 18 23 26 25 24 23 22 24 25 23 22 23 25 28 31 33
3 8 14 15 14 15 13 7 14 11 11 11 17 8 8 16 10 5 8 11 4 3 2 6 9 12 7 6 5 4 4 5 5 4 6 7 11 16 18 21 22 23 27 30 31 32 31 31 29 26 25 25 25 27
8 10 9 11 10 10 15 14 14 13 10 9 9 9 9 4 4 6 6 2 4 4 4 8 14 9 8 8 7 4 2 2 3 5 7 9 11 12 19 24 25 28 32 34 35 36 36 33 30 27 25 25 25 26
14 8 7 9 10 11 6 7 7 8 5 5 6 5 3 3 5 4 2 4 4 8 12 12 12 13 12 10 10 11 11 11 9 8 7 6 7 9 11 16 22 25 27 30 32 34 36 34 32 30 28 26 26 26
11 8 13 12 16 4 4 10 9 8 8 6 5 4 3 2 3 5 4 6 7 16 17 17 18 18 16 15 14 13 11 10 9 8 7 5 4 7 10 13 16 21 24 25 25 27 28 29 29 29 29 29 29 30
7 20 14 12 15 9 10 8 9 7 4 1 6 0 3 3 4 1 5 5 21 27 24 22 22 18 14 15 13 10 6 4 5 7 6 6 8 9 9 11 14 17 20 20 19 21 23 23 24 25 26 27 27 28
14 17 10 1 8 7 3 5 2 5 5 4 0 3 2 5 4 8 6 12 20 30 26 24 22 20 17 15 12 9 7 6 9 10 8 8 10 11 12 13 13 15 19 21 22 23 23 24 24 23 21 21 20 20
9 6 9 12 4 6 8 6 5 6 5 6 4 2 6 3 8 7 4 11 12 18 21 20 18 15 12 10 8 5 6 8 9 10 12 12 12 10 9 9 11 14 18 21 25 27 28 27 27 26 25 24 24 23
8 9 5 10 9 10 7 5 5 2 3 2 6 5 11 11 7 1 4 15 16 19 21 21 20 17 14 9 6 6 9 11 11 10 9 8 7 6 6 7 11 15 18 22 25 28 31 32 31 29 29 28 27 27
9 8 6 7 5 6 3 6 7 5 6 7 6 4 6 6 4 1 3 15 20 23 23 21 19 15 11 8 6 8 9 11 10 10 9 8 6 6 9 12 16 20 23 24 27 32 34 37 40 39 37 34 32 30
11 15 5 2 4 1 1 2 2 5 6 7 7 8 9 8 7 8 10 16 22 21 19 20 21 17 14 14 11 10 10 11 11 11 10 8 10 13 16 20 23 27 30 32 31 30 31 34 34 36 36 35 34 33
10 8 3 3 2 1 1 4 9 11 9 6 11 10 11 12 6 5 12 17 21 26 28 28 26 21 19 16 14 15 14 14 12 12 16 19 21 22 24 27 29 31 31 31 35 38 40 40 40 40 38 37 34 35
9 6 2 4 4 3 6 7 4 3 4 4 4 5 6 8 7 2 1 10 21 24 22 21 20 15 15 17 20 20 18 19 21 24 28 30 30 29 30 31 31 33 37 39 42 45 47 50 50 49 49 46 44 44
4 4 3 4 3 3 8 12 7 7 3 3 2 4 4 4 7 5 4 4 1 9 16 20 20 20 20 17 15 14 16 18 20 24 28 31 33 34 36 38 40 43 48 52 55 56 57 57 58 57 54 53 51 49
Wind_Direction_500mb
257 258 254 254 255 255 255 257 257 255 249 254 255 248 246 246 246 240 244 239 235 241 254 248 242 232 209 201 185 212 34 254 47 168 153 226 181 228 127 240 193 175 194 233 94 175 280 321 342 80 264 303 281 308
252 253 255 255 252 255 255 248 252 253 250 250 248 256 248 244 243 238 243 248 247 246 264 263 255 257 247 248 244 232 230 172 210 100 271 73 273 13 178 258 230 262 199 224 190 216 263 295 281 285 277 283 278 288
254 254 250 249 250 253 253 252 258 257 260 258 255 252 251 246 240 235 241 246 249 250 265 262 251 264 256 247 246 235 247 233 229 239 246 222 237 144 247 232 255 240 232 242 360 269 263 274 279 281 286 269 284 292
253 255 255 256 253 252 253 254 250 254 257 261 258 255 250 248 240 238 237 240 243 247 258 270 262 245 251 242 238 240 244 248 258 248 232 222 239 191 223 242 219 241 143 226 253 272 278 274 274 281 276 282 287 295
254 255 254 254 256 255 253 251 249 249 255 255 257 253 247 246 245 243 242 239 242 226 278 287 273 261 246 241 244 245 244 243 237 238 240 247 221 210 216 247 250 246 249 253 258 269 270 276 281 283 284 293 287 289
255 258 256 253 250 253 253 252 250 245 249 253 257 251 249 251 249 244 245 251 239 240 249 251 253 247 246 245 257 241 236 235 223 222 223 236 250 241 242 235 259 264 254 252 258 270 274 273 279 293 284 288 291 298
256 258 256 254 252 250 252 250 248 242 242 248 251 253 247 249 241 229 222 248 216 221 222 242 267 235 243 246 246 237 231 222 226 245 242 248 239 231 255 261 271 266 264 264 265 267 277 282 271 280 291 297 296 296
255 255 255 255 253 249 249 248 250 241 238 241 248 249 249 246 247 240 234 223 170 196 209 231 255 339 222 218 223 227 217 214 225 228 221 217 238 216 253 261 262 272 271 268 259 274 278 289 296 301 302 304 306 305
256 255 254 252 250 249 246 247 243 240 236 238 246 249 249 242 233 242 249 246 238 220 201 189 148 247 191 202 199 213 200 182 211 212 217 194 216 221 229 270 273 295 317 292 294 297 303 300 304 308 311 311 305 306
258 253 252 251 249 246 244 239 236 234 234 231 232 230 222 210 237 236 211 201 211 233 222 181 182 229 215 191 225 177 206 206 204 231 157 219 237 229 246 249 257 283 299 311 323 322 319 314 314 312 312 311 307 304
262 254 251 249 250 246 237 229 229 227 226 224 192 210 201 189 183 190 206 184 183 209 203 209 211 212 207 172 207 211 204 199 216 252 162 288 269 145 213 246 276 295 307 314 309 305 305 305 308 312 312 312 313 314
260 256 253 250 248 241 231 221 222 216 223 202 196 173 176 186 187 198 190 181 170 203 193 163 199 204 199 206 209 188 208 151 236 87 98 261 239 131 180 312 313 311 312 312 313 314 315 313 313 311 312 317 319 318
266 258 254 253 254 242 215 214 214 219 217 191 189 176 170 184 190 197 189 226 211 190 175 173 186 178 176 199 216 162 217 225 104 81 219 224 112 59 341 330 320 321 320 320 321 320 318 318 321 322 320 324 325 318
265 261 257 244 241 238 211 201 205 207 203 187 162 176 191 177 226 181 181 188 194 178 158 150 120 164 175 153 193 223 232 108 36 262 234 131 4 340 335 327 323 325 326 324 326 326 327 327 325 325 328 332 326 319
260 248 245 245 229 216 202 203 201 203 211 169 178 196 188 171 120 171 161 143 151 152 141 115 90 123 326 208 205 249 242 244 203 225 206 214 318 321 323 323 323 324 326 327 329 327 325 325 327 330 334 333 331 331
254 240 225 223 213 205 203 202 201 205 213 184 167 106 90 95 320 190 180 163 149 154 125 99 112 80 249 171 122 218 150 219 235 201 184 300 316 323 322 320 323 325 325 324 323 323 324 331 331 329 334 337 340 341
242 244 238 224 222 217 209 211 212 199 188 130 103 118 126 62 142 154 162 151 154 148 161 129 136 207 71 169 236 189 208 220 163 273 309 316 312 319 320 322 327 326 325 324 324 329 330 330 333 332 336 344 349 354
234 247 243 229 221 208 199 196 186 134 73 63 168 140 127 120 126 135 145 149 145 181 161 186 119 136 201 194 255 199 157 171 285 301 321 317 311 322 327 328 332 331 331 333 333 331 334 339 335 341 342 347 357 4
217 230 233 212 212 171 119 90 115 100 86 111 116 121 113 109 109 128 135 151 156 153 142 117 105 203 230 193 176 159 171 245 305 326 331 336 339 339 340 338 338 345 344 342 342 344 345 344 343 348 352 358 3 8
323 357 202 187 176 126 90 58 72 105 111 134 115 96 95 103 111 114 126 142 145 129 66 165 218 194 145 152 150 196 245 289 314 327 93 46 6 9 2 360 3 357 0 6 10 9 7 13 13 11 9 8 12 18
155 153 90 140 83 82 87 60 59 73 104 85 110 72 74 104 101 103 109 132 130 160 252 182 156 153 168 198 211 213 247 271 285 293 327 17 36 28 24 28 23 22 26 25 26 27 25 20 17 16 18 21 25 28
161 154 101 69 82 72 75 59 106 115 87 100 84 75 68 46 61 71 114 115 214 174 170 174 182 192 190 171 158 160 156 121 85 67 63 52 49 42 32 30 32 36 36 34 34 32 30 29 29 29 34 36 37 37
125 111 67 59 88 61 53 53 72 47 91 108 92 76 38 21 66 113 45 239 222 193 178 183 183 175 166 149 137 133 119 100 88 85 81 66 44 29 20 22 26 30 36 36 35 36 37 37 38 38 39 41 42 42
112 62 37 45 39 90 71 37 55 71 80 56 77 72 337 216 106 58 242 257 196 180 187 186 176 168 164 162 152 138 124 111 100 82 65 42 15 10 12 11 15 22 21 19 23 28 31 34 36 37 38 38 39 39
96 9 19 11 27 51 47 22 359 53 94 277 100 27 250 171 68 30 229 247 189 193 191 185 181 181 176 168 167 171 186 230 270 283 297 332 355 357 354 353 1 6 12 7 9 14 16 16 18 21 23 26 29 29
67 3 41 271 348 83 181 82 48 165 128 69 86 331 67 87 81 241 229 194 194 194 190 185 179 178 181 186 199 220 246 278 298 299 284 290 311 329 346 357 2 2 5 6 7 10 9 8 6 4 2 1 360 1
70 345 26 33 39 114 83 82 117 95 94 136 215 97 74 157 240 250 192 179 169 174 171 173 174 175 183 189 195 228 269 291 309 312 298 298 291 293 319 346 10 15 15 12 9 6 3 1 358 355 355 353 350 349
82 34 75 342 32 38 110 40 54 129 238 143 96 183 183 192 224 352 177 168 162 167 173 177 180 183 184 201 238 278 293 301 295 311 316 309 308 304 314 339 349 350 352 353 353 351 347 346 344 344 342 341 339 337
52 19 358 17 30 47 130 151 201 190 164 181 158 244 251 247 244 285 203 188 181 177 181 184 186 194 211 228 263 297 306 311 308 311 321 315 318 318 324 326 329 328 332 335 335 333 334 332 332 333 334 332 330 328
12 5 51 58 86 325 333 114 125 165 210 244 275 282 272 266 259 236 219 212 207 200 194 196 206 218 227 243 260 293 307 313 311 303 306 313 308 312 313 313 315 315 317 321 324 327 326 323 320 317 317 318 319 319
343 346 19 56 184 68 12 294 283 271 261 261 257 258 281 301 310 237 214 207 207 209 212 216 224 233 242 257 273 284 291 295 295 296 302 304 304 305 305 304 305 304 307 313 319 322 324 323 321 316 312 308 305 304
346 29 97 25 313 346 336 339 293 273 254 263 262 284 302 306 299 35 14 230 229 230 232 235 241 249 262 260 260 274 288 290 293 296 297 303 305 306 303 301 299 298 300 304 309 313 316 318 318 317 314 310 305 299
325 338 352 339 9 18 351 344 16 344 274 284 288 308 302 287 252 48 42 27 262 210 218 225 228 229 239 259 277 285 292 300 302 303 303 303 303 302 299 298 296 295 296 298 300 303 305 307 308 309 307 306 304 302
Wind_Speed_850mb
55 54 52 51 51 49 48 47 48 40 53 53 53 52 52 51 46 48 59 55 52 36 60 47 40 31 20 17 8 9 3 8 5 5 7 7 7 9 2 6 7 5 3 6 1 1 15 10 37 3 16 33 34 32
61 59 56 59 55 54 57 55 58 55 53 53 58 59 55 57 53 48 53 51 47 56 30 26 42 55 71 70 41 25 21 14 20 4 2 4 4 2 7 17 10 13 13 10 15 14 15 47 43 63 45 41 34 34
64 67 66 64 61 62 61 57 59 51 53 55 56 61 62 58 57 53 56 50 44 45 54 63 53 82 84 69 61 36 34 38 30 44 12 8 16 8 14 12 16 14 28 15 5 35 32 44 60 60 61 46 48 50
67 68 67 65 65 64 63 60 58 56 54 57 59 58 57 57 54 54 57 56 52 23 12 37 50 53 37 42 56 76 87 61 48 46 25 9 9 18 9 15 16 17 9 15 29 34 47 57 58 44 40 53 57 67
69 70 70 69 68 67 65 65 60 56 51 52 57 56 54 55 51 51 59 61 57 49 9 14 27 34 39 46 55 56 68 70 48 31 11 10 8 8 6 10 22 28 35 25 31 54 45 47 67 52 55 60 52 50
69 70 68 68 68 64 65 65 65 61 57 51 53 53 48 47 48 49 44 66 66 66 24 11 23 40 50 66 66 62 68 64 38 19 11 21 49 24 12 10 21 42 56 68 48 76 64 74 67 54 44 44 49 66
68 68 66 64 64 64 63 62 63 59 54 51 49 51 52 49 47 59 13 9 32 54 24 7 7 18 38 58 67 65 61 41 41 40 31 46 39 22 9 23 33 56 64 56 57 49 42 43 20 34 47 64 66 79
64 63 64 64 65 64 62 60 60 58 53 50 47 46 49 47 46 58 71 44 23 48 15 5 8 3 17 12 15 40 31 35 27 24 9 10 14 13 13 28 62 47 37 28 27 29 33 47 55 55 55 70 76 88
61 62 60 59 60 59 60 57 55 54 49 48 43 41 42 51 48 55 51 48 69 53 11 9 8 7 16 26 20 12 17 8 15 9 8 15 6 13 14 13 10 15 8 22 33 38 41 40 59 65 69 73 66 88
61 61 61 59 58 59 61 56 52 50 49 45 39 33 18 20 40 33 27 27 28 14 11 5 15 7 14 13 6 5 15 6 7 10 11 8 9 16 13 13 13 15 19 28 39 36 56 64 55 73 77 78 73 81
53 58 59 60 61 59 63 56 51 46 42 49 26 22 18 16 27 18 13 16 14 6 14 13 36 9 25 7 10 17 5 5 6 8 10 2 6 5 9 8 12 15 19 24 31 39 46 55 71 81 92 90 89 87
49 47 47 48 52 58 57 55 53 49 54 33 25 22 24 18 13 9 8 4 6 12 10 9 15 20 12 19 8 8 6 4 10 3 7 6 6 8 0 7 13 19 26 32 37 48 53 58 63 71 79 83 80 79
37 42 47 48 47 54 62 56 50 49 49 51 25 23 16 12 10 12 12 5 2 5 20 17 4 12 10 15 4 4 8 11 7 4 9 9 10 3 12 18 23 29 35 43 49 52 57 62 63 64 73 72 74 77
38 39 37 43 44 45 51 51 48 49 39 20 13 13 11 8 8 9 10 10 10 14 34 26 10 7 9 5 4 5 7 6 1 2 13 1 4 16 20 25 34 40 43 50 54 58 62 64 66 63 62 67 71 73
36 36 34 33 41 42 41 43 49 53 25 16 13 12 11 8 3 10 16 22 16 31 32 12 8 2 2 3 6 1 4 9 12 11 3 4 11 19 25 30 36 43 49 54 56 60 61 58 58 61 60 62 61 61
18 20 28 29 29 32 37 41 46 51 14 17 8 6 9 9 3 9 18 14 33 33 22 11 6 6 8 7 5 14 10 13 8 5 3 14 19 23 27 31 35 41 46 50 51 51 51 50 51 54 56 53 52 51
16 20 18 19 24 29 32 36 29 13 12 10 4 11 10 4 9 16 16 15 30 22 5 6 10 17 3 3 7 9 10 5 8 2 9 15 22 24 26 31 34 38 41 43 44 43 43 41 42 44 48 47 44 43
15 20 23 23 21 29 39 30 22 8 9 9 2 8 12 10 17 19 16 31 18 10 13 8 11 4 10 11 9 4 5 8 10 8 13 14 14 18 24 30 32 34 36 37 36 36 34 35 36 38 39 39 38 42
10 16 21 24 30 13 9 5 8 9 7 8 16 18 16 18 18 19 24 23 15 13 20 9 7 7 7 4 5 8 7 3 5 13 16 6 13 17 19 23 27 29 30 29 28 28 28 25 25 27 30 32 35 38
9 3 5 29 27 10 9 10 9 13 6 10 11 12 13 14 19 20 19 19 18 7 5 2 7 4 6 10 6 2 3 5 8 12 4 5 10 13 18 23 26 25 24 23 22 24 25 23 22 23 25 28 31 33
3 8 14 15 14 15 13 7 14 11 11 11 17 8 8 16 10 5 8 11 4 3 2 6 9 12 7 6 5 4 4 5 5 4 6 7 11 16 18 21 22 23 27 30 31 32 31 31 29 26 25 25 25 27
8 10 9 11 10 10 15 14 14 13 10 9 9 9 9 4 4 6 6 2 4 4 4 8 14 9 8 8 7 4 2 2 3 5 7 9 11 12 19 24 25 28 32 34 35 36 36 33 30 27 25 25 25 26
14 8 7 9 10 11 6 7 7 8 5 5 6 5 3 3 5 4 2 4 4 8 12 12 12 13 12 10 10 11 11 11 9 8 7 6 7 9 11 16 22 25 27 30 32 34 36 34 32 30 28 26 26 26
11 8 13 12 16 4 4 10 9 8 8 6 5 4 3 2 3 5 4 6 7 16 17 17 18 18 16 15 14 13 11 10 9 8 7 5 4 7 10 13 16 21 24 25 25 27 28 29 29 29 29 29 29 30
7 20 14 12 15 9 10 8 9 7 4 1 6 0 3 3 4 1 5 5 21 27 24 22 22 18 14 15 13 10 6 4 5 7 6 6 8 9 9 11 14 17 20 20 19 21 23 23 24 25 26 27 27 28
14 17 10 1 8 7 3 5 2 5 5 4 0 3 2 5 4 8 6 12 20 30 26 24 22 20 17 15 12 9 7 6 9 10 8 8 10 11 12 13 13 15 19 21 22 23 23 24 24 23 21 21 20 20
9 6 9 12 4 6 8 6 5 6 5 6 4 2 6 3 8 7 4 11 12 18 21 20 18 15 12 10 8 5 6 8 9 10 12 12 12 10 9 9 11 14 18 21 25 27 28 27 27 26 25 24 24 23
8 9 5 10 9 10 7 5 5 2 3 2 6 5 11 11 7 1 4 15 16 19 21 21 20 17 14 9 6 6 9 11 11 10 9 8 7 6 6 7 11 15 18 22 25 28 31 32 31 29 29 28 27 27
9 8 6 7 5 6 3 6 7 5 6 7 6 4 6 6 4 1 3 15 20 23 23 21 19 15 11 8 6 8 9 11 10 10 9 8 6 6 9 12 16 20 23 24 27 32 34 37 40 39 37 34 32 30
11 15 5 2 4 1 1 2 2 5 6 7 7 8 9 8 7 8 10 16 22 21 19 20 21 17 14 14 11 10 10 11 11 11 10 8 10 13 16 20 23 27 30 32 31 30 31 34 34 36 36 35 34 33
10 8 3 3 2 1 1 4 9 11 9 6 11 10 11 12 6 5 12 17 21 26 28 28 26 21 19 16 14 15 14 14 12 12 16 19 21 22 24 27 29 31 31 31 35 38 40 40 40 40 38 37 34 35
9 6 2 4 4 3 6 7 4 3 4 4 4 5 6 8 7 2 1 10 21 24 22 21 20 15 15 17 20 20 18 19 21 24 28 30 30 29 30 31 31 33 37 39 42 45 47 50 50 49 49 46 44 44
4 4 3 4 3 3 8 12 7 7 3 3 2 4 4 4 7 5 4 4 1 9 16 20 20 20 20 17 15 14 16 18 20 24 28 31 33 34 36 38 40 43 48 52 55 56 57 57 58 57 54 53 51 49
Wind_Direction_850mb
257 258 254 254 255 255 255 257 257 255 249 254 255 248 246 246 246 240 244 239 235 241 254 248 242 232 209 201 185 212 34 254 47 168 153 226 181 228 127 240 193 175 194 233 94 175 280 321 342 80 264 303 281 308
252 253 255 255 252 255 255 248 252 253 250 250 248 256 248 244 243 238 243 248 247 246 264 263 255 257 247 248 244 232 230 172 210 100 271 73 273 13 178 258 230 262 199 224 190 216 263 295 281 285 277 283 278 288
254 254 250 249 250 253 253 252 258 257 260 258 255 252 251 246 240 235 241 246 249 250 265 262 251 264 256 247 246 235 247 233 229 239 246 222 237 144 247 232 255 240 232 242 360 269 263 274 279 281 286 269 284 292
253 255 255 256 253 252 253 254 250 254 257 261 258 255 250 248 240 238 237 240 243 247 258 270 262 245 251 242 238 240 244 248 258 248 232 222 239 191 223 242 219 241 143 226 253 272 278 274 274 281 276 282 287 295
254 255 254 254 256 255 253 251 249 249 255 255 257 253 247 246 245 243 242 239 242 226 278 287 273 261 246 241 244 245 244 243 237 238 240 247 221 210 216 247 250 246 249 253 258 269 270 276 281 283 284 293 287 289
255 258 256 253 250 253 253 252 250 245 249 253 257 251 249 251 249 244 245 251 239 240 249 251 253 247 246 245 257 241 236 235 223 222 223 236 250 241 242 235 259 264 254 252 258 270 274 273 279 293 284 288 291 298
256 258 256 254 252 250 252 250 248 242 242 248 251 253 247 249 241 229 222 248 216 221 222 242 267 235 243 246 246 237 231 222 226 245 242 248 239 231 255 261 271 266 264 264 265 267 277 282 271 280 291 297 296 296
255 255 255 255 253 249 249 248 250 241 238 241 248 249 249 246 247 240 234 223 170 196 209 231 255 339 222 218 223 227 217 214 225 228 221 217 238 216 253 261 262 272 271 268 259 274 278 289 296 301 302 304 306 305
256 255 254 252 250 249 246 247 243 240 236 238 246 249 249 242 233 242 249 246 238 220 201 189 148 247 191 202 199 213 200 182 211 212 217 194 216 221 229 270 273 295 317 292 294 297 303 300 304 308 311 311 305 306
258 253 252 251 249 246 244 239 236 234 234 231 232 230 222 210 237 236 211 201 211 233 222 181 182 229 215 191 225 177 206 206 204 231 157 219 237 229 246 249 257 283 299 311 323 322 319 314 314 312 312 311 307 304
262 254 251 249 250 246 237 229 229 227 226 224 192 210 201 189 183 190 206 184 183 209 203 209 211 212 207 172 207 211 204 199 216 252 162 288 269 145 213 246 276 295 307 314 309 305 305 305 308 312 312 312 313 314
260 256 253 250 248 241 231 221 222 216 223 202 196 173 176 186 187 198 190 181 170 203 193 163 199 204 199 206 209 188 208 151 236 87 98 261 239 131 180 312 313 311 312 312 313 314 315 313 313 311 312 317 319 318
266 258 254 253 254 242 215 214 214 219 217 191 189 176 170 184 190 197 189 226 211 190 175 173 186 178 176 199 216 162 217 225 104 81 219 224 112 59 341 330 320 321 320 320 321 320 318 318 321 322 320 324 325 318
265 261 257 244 241 238 211 201 205 207 203 187 162 176 191 177 226 181 181 188 194 178 158 150 120 164 175 153 193 223 232 108 36 262 234 131 4 340 335 327 323 325 326 324 326 326 327 327 325 325 328 332 326 319
260 248 245 245 229 216 202 203 201 203 211 169 178 196 188 171 120 171 161 143 151 152 141 115 90 123 326 208 205 249 242 244 203 225 206 214 318 321 323 323 323 324 326 327 329 327 325 325 327 330 334 333 331 331
254 240 225 223 213 205 203 202 201 205 213 184 167 106 90 95 320 190 180 163 149 154 125 99 112 80 249 171 122 218 150 219 235 201 184 300 316 323 322 320 323 325 325 324 323 323 324 331 331 329 334 337 340 341
242 244 238 224 222 217 209 211 212 199 188 130 103 118 126 62 142 154 162 151 154 148 161 129 136 207 71 169 236 189 208 220 163 273 309 316 312 319 320 322 327 326 325 324 324 329 330 330 333 332 336 344 349 354
234 247 243 229 221 208 199 196 186 134 73 63 168 140 127 120 126 135 145 149 145 181 161 186 119 136 201 194 255 199 157 171 285 301 321 317 311 322 327 328 332 331 331 333 333 331 334 339 335 341 342 347 357 4
217 230 233 212 212 171 119 90 115 100 86 111 116 121 113 109 109 128 135 151 156 153 142 117 105 203 230 193 176 159 171 245 305 326 331 336 339 339 340 338 338 345 344 342 342 344 345 344 343 348 352 358 3 8
323 357 202 187 176 126 90 58 72 105 111 134 115 96 95 103 111 114 126 142 145 129 66 165 218 194 145 152 150 196 245 289 314 327 93 46 6 9 2 360 3 357 0 6 10 9 7 13 13 11 9 8 12 18
155 153 90 140 83 82 87 60 59 73 104 85 110 72 74 104 101 103 109 132 130 160 252 182 156 153 168 198 211 213 247 271 285 293 327 17 36 28 24 28 23 22 26 25 26 27 25 20 17 16 18 21 25 28
161 154 101 69 82 72 75 59 106 115 87 100 84 75 68 46 61 71 114 115 214 174 170 174 182 192 190 171 158 160 156 121 85 67 63 52 49 42 32 30 32 36 36 34 34 32 30 29 29 29 34 36 37 37
125 111 67 59 88 61 53 53 72 47 91 108 92 76 38 21 66 113 45 239 222 193 178 183 183 175 166 149 137 133 119 100 88 85 81 66 44 29 20 22 26 30 36 36 35 36 37 37 38 38 39 41 42 42
112 62 37 45 39 90 71 37 55 71 80 56 77 72 337 216 106 58 242 257 196 180 187 186 176 168 164 162 152 138 124 111 100 82 65 42 15 10 12 11 15 22 21 19 23 28 31 34 36 37 38 38 39 39
96 9 19 11 27 51 47 22 359 53 94 277 100 27 250 171 68 30 229 247 189 193 191 185 181 181 176 168 167 171 186 230 270 283 297 332 355 357 354 353 1 6 12 7 9 14 16 16 18 21 23 26 29 29
67 3 41 271 348 83 181 82 48 165 128 69 86 331 67 87 81 241 229 194 194 194 190 185 179 178 181 186 199 220 246 278 298 299 284 290 311 329 346 357 2 2 5 6 7 10 9 8 6 4 2 1 360 1
70 345 26 33 39 114 83 82 117 95 94 136 215 97 74 157 240 250 192 179 169 174 171 173 174 175 183 189 195 228 269 291 309 312 298 298 291 293 319 346 10 15 15 12 9 6 3 1 358 355 355 353 350 349
82 34 75 342 32 38 110 40 54 129 238 143 96 183 183 192 224 352 177 168 162 167 173 177 180 183 184 201 238 278 293 301 295 311 316 309 308 304 314 339 349 350 352 353 353 351 347 346 344 344 342 341 339 337
52 19 358 17 30 47 130 151 201 190 164 181 158 244 251 247 244 285 203 188 181 177 181 184 186 194 211 228 263 297 306 311 308 311 321 315 318 318 324 326 329 328 332 335 335 333 334 332 332 333 334 332 330 328
12 5 51 58 86 325 333 114 125 165 210 244 275 282 272 266 259 236 219 212 207 200 194 196 206 218 227 243 260 293 307 313 311 303 306 313 308 312 313 313 315 315 317 321 324 327 326 323 320 317 317 318 319 319
343 346 19 56 184 68 12 294 283 271 261 261 257 258 281 301 310 237 214 207 207 209 212 216 224 233 242 257 273 284 291 295 295 296 302 304 304 305 305 304 305 304 307 313 319 322 324 323 321 316 312 308 305 304
346 29 97 25 313 346 336 339 293 273 254 263 262 284 302 306 299 35 14 230 229 230 232 235 241 249 262 260 260 274 288 290 293 296 297 303 305 306 303 301 299 298 300 304 309 313 316 318 318 317 314 310 305 299
325 338 352 339 9 18 351 344 16 344 274 284 288 308 302 287 252 48 42 27 262 210 218 225 228 229 239 259 277 285 292 300 302 303 303 303 303 302 299 298 296 295 296 298 300 303 305 307 308 309 307 306 304 302